Wind_Speed
17 19 20 21 23 24 25 26 28 29 31 32 33 34 36 37 37 38 39 40 41 42 41 42 43 40 37 36 35 36 39 41 41 38 36 37 37 38 39 40 40 40 40 40 41 42 44 45 45 46 46 46 46 48 48 48 48 49 49 49 49 50 51 51 53 54 55 56 56 56 56 56 56 56 56 55 55 54 54 54 55 56 57 58 59 59
19 20 21 23 24 25 26 28 29 31 32 34 35 36 38 39 39 39 41 41 43 43 42 43 44 41 39 38 37 36 37 40 42 40 39 38 39 40 40 40 40 40 41 42 42 43 44 45 46 47 47 47 48 49 50 50 50 50 51 51 51 51 52 52 53 55 56 56 57 57 56 56 56 56 55 55 54 53 53 54 55 56 57 58 58 58
20 21 23 25 26 27 29 30 31 33 35 37 37 39 40 41 41 41 42 43 44 44 43 44 45 42 40 40 38 35 33 36 40 41 40 39 40 41 41 42 42 41 42 43 44 44 44 45 46 47 47 48 49 50 50 51 51 52 52 53 53 53 53 53 54 55 56 57 57 57 56 56 55 55 54 54 54 53 53 53 54 55 56 57 58 57
23 24 26 28 29 30 32 33 34 35 37 39 39 40 40 42 43 43 43 43 44 46 45 44 44 42 40 40 39 37 35 35 38 39 39 40 40 42 42 42 42 42 43 44 46 48 47 45 45 45 46 49 50 51 52 52 52 53 53 54 55 55 54 54 54 55 56 57 57 57 56 55 55 54 54 53 53 52 52 53 54 54 56 57 56 56
25 27 29 30 32 33 34 35 36 38 38 40 41 41 42 42 44 44 44 44 44 45 46 45 45 42 40 40 40 41 40 39 39 40 39 39 39 40 41 42 42 44 45 46 46 48 48 46 45 44 45 48 50 52 53 54 54 54 54 56 56 56 56 55 55 55 56 56 56 56 56 55 54 54 53 52 51 51 51 52 53 54 55 56 55 55
27 29 31 32 34 35 36 37 39 40 39 40 41 42 43 43 44 45 45 46 45 45 46 47 48 45 42 41 39 40 43 42 41 41 41 42 42 41 42 43 44 46 47 47 46 46 46 46 47 45 45 47 50 52 53 55 55 56 56 57 57 58 57 56 56 56 56 56 56 55 55 55 54 53 53 51 51 51 51 52 52 53 54 55 54 54
29 31 32 34 35 36 38 39 39 41 41 41 42 43 44 45 45 46 46 47 47 47 47 47 50 48 45 41 38 39 43 43 42 41 42 45 46 46 46 46 47 48 48 47 46 46 46 48 50 50 49 48 49 51 53 55 56 57 57 58 58 58 58 58 57 56 56 55 55 55 54 54 53 53 52 51 50 51 51 51 52 54 55 54 53 53
31 33 34 35 37 38 39 40 41 43 43 44 45 46 46 47 47 47 48 50 50 51 49 48 50 50 48 43 39 39 43 44 42 41 43 46 48 48 49 49 49 48 47 47 46 47 49 50 51 53 53 51 51 51 53 55 56 57 58 58 59 59 59 58 58 57 56 56 55 55 54 53 53 52 52 51 51 51 52 52 53 55 56 54 53 52
34 35 36 38 39 41 42 44 45 46 47 48 48 49 49 50 50 51 52 52 53 54 52 50 51 52 51 45 39 39 42 43 42 42 46 49 50 51 51 50 49 48 48 48 49 49 51 52 53 54 53 53 53 54 54 54 56 57 58 59 59 59 59 59 59 58 57 57 56 55 54 53 52 51 51 51 52 52 53 53 54 54 55 54 53 52
37 38 39 41 42 43 45 46 47 48 49 49 50 51 51 52 52 53 54 54 54 55 53 52 53 54 53 47 42 43 44 44 44 45 48 50 51 51 49 47 47 47 48 50 51 52 52 53 54 54 53 54 55 56 56 55 55 56 58 59 60 60 59 59 59 59 58 57 56 55 54 52 52 51 51 51 52 53 53 53 53 54 55 54 53 52
38 39 40 41 42 43 44 44 46 47 48 49 50 51 51 51 53 53 54 54 54 53 52 52 51 52 53 49 46 46 47 47 48 48 49 48 47 46 45 45 47 48 50 50 51 51 52 52 53 54 54 55 56 57 56 56 56 57 58 59 59 59 60 60 60 60 59 59 57 56 54 53 52 51 52 52 53 54 54 54 54 54 55 55 53 52
37 38 39 40 41 42 43 44 46 47 49 50 51 52 52 52 53 53 53 54 52 50 49 48 47 47 48 47 46 46 47 49 49 48 47 45 43 43 44 47 50 51 50 49 49 50 51 52 53 54 55 55 55 55 56 56 57 58 59 60 60 60 60 60 60 60 60 59 58 57 55 53 52 52 52 53 54 54 55 54 54 54 55 55 54 52
37 38 39 40 42 43 44 45 46 48 49 51 52 53 54 54 53 52 51 50 48 46 45 45 45 44 43 43 44 46 47 49 48 47 46 46 46 46 48 49 50 50 49 47 48 49 50 51 51 52 53 53 54 55 56 57 57 59 60 60 60 61 61 61 61 60 60 60 59 57 56 54 54 54 53 54 55 55 55 55 54 54 55 55 53 52
38 39 40 41 43 44 46 47 48 49 50 51 51 52 53 53 52 51 49 48 47 45 44 43 43 43 40 40 43 45 46 47 48 47 46 46 47 48 48 49 48 48 48 48 48 47 48 49 49 50 50 52 53 54 55 56 57 58 59 59 60 61 61 61 60 60 60 60 59 58 57 56 55 55 55 55 56 57 57 55 54 54 54 54 53 51
40 41 42 44 45 45 47 48 49 49 49 49 49 50 49 48 47 47 47 47 46 46 45 43 42 41 40 40 42 44 44 45 48 49 47 45 46 47 48 48 48 48 49 49 49 49 49 49 49 50 50 51 52 53 54 55 55 56 56 58 59 60 61 61 60 60 60 60 60 59 58 57 57 56 56 56 57 58 58 56 54 54 54 54 53 50
40 42 43 44 44 45 46 47 48 48 48 47 47 47 46 45 44 44 43 43 45 46 45 43 42 40 38 36 39 41 42 44 48 50 49 47 47 48 48 49 49 50 50 51 51 51 51 51 51 52 52 53 53 54 55 56 56 57 57 58 58 59 60 60 61 61 62 61 61 60 59 58 57 57 57 57 58 60 59 56 53 53 53 53 52 50
40 40 42 43 43 45 46 46 46 46 46 46 45 45 44 43 43 43 43 42 44 46 45 43 42 39 33 31 35 39 41 43 46 48 48 47 46 47 49 51 51 52 52 53 53 53 54 54 54 54 54 55 55 56 56 57 57 58 59 60 60 59 59 60 61 63 63 63 62 61 59 59 58 57 58 59 60 62 60 56 52 52 52 52 50 49
40 40 41 42 43 44 45 45 45 45 45 46 46 45 45 44 43 45 47 46 45 47 45 42 43 42 35 33 37 38 40 43 44 47 48 48 47 48 50 51 52 53 53 53 53 54 55 55 56 56 56 57 57 56 57 57 56 57 58 59 58 58 59 59 59 59 59 61 62 62 61 60 58 58 60 60 61 61 58 54 51 51 51 50 49 48
41 40 40 42 43 44 44 45 45 45 45 46 47 46 47 47 47 47 48 49 48 49 48 44 45 43 35 33 39 40 42 45 45 47 49 49 49 50 51 52 51 52 52 52 53 53 54 55 56 56 56 56 57 57 57 56 57 57 57 56 55 55 55 55 55 54 54 55 59 62 62 61 59 59 59 58 57 58 55 51 49 50 50 48 47 47
41 41 40 40 41 43 44 44 45 45 45 46 47 47 48 47 47 47 47 47 47 48 48 46 48 44 33 32 40 40 42 44 44 45 45 46 47 48 49 49 49 48 49 49 50 50 51 52 52 53 54 55 56 57 57 56 56 56 56 56 55 55 54 53 52 52 52 52 54 56 57 57 55 53 53 52 54 54 51 48 48 49 48 45 45 45
40 41 40 38 38 41 44 45 45 45 45 45 46 46 46 45 45 46 45 45 46 47 46 45 48 44 34 34 39 39 40 42 43 43 43 43 44 45 45 46 46 46 46 46 47 47 48 48 49 50 51 52 53 54 55 56 56 57 57 57 57 56 55 53 52 51 51 51 51 52 52 51 50 49 49 50 51 51 48 46 48 49 46 44 44 44
40 41 41 40 39 41 43 44 45 45 45 46 45 44 45 45 45 46 45 45 45 45 43 44 46 43 37 38 39 39 42 42 43 44 43 43 44 44 45 46 46 47 47 47 48 48 48 48 49 49 50 51 52 52 53 54 55 56 57 57 58 58 57 55 53 52 51 51 50 50 51 50 49 48 48 49 50 48 46 46 48 48 45 43 44 44
41 42 42 42 41 43 44 45 45 45 45 44 44 45 45 45 46 47 48 47 46 44 43 45 47 44 41 42 42 42 45 45 45 47 47 46 46 46 47 47 47 48 48 49 50 49 50 50 50 50 50 51 51 52 53 53 54 55 55 56 57 57 57 56 55 53 52 51 51 50 50 49 47 47 47 48 48 46 45 46 48 48 45 44 44 45
43 44 45 43 42 43 44 45 44 44 44 44 44 45 46 46 46 47 49 50 49 47 46 48 49 45 43 45 46 46 47 47 48 50 50 50 50 50 50 50 49 50 50 51 51 52 52 52 52 52 52 51 51 51 52 52 53 54 55 55 56 56 57 56 56 54 53 52 51 51 50 48 46 45 45 46 45 44 45 47 48 47 45 44 45 46
44 45 46 46 45 45 46 45 44 43 43 43 44 45 46 46 47 47 48 50 50 48 48 51 51 48 45 46 47 48 49 49 50 52 53 54 54 54 54 54 54 54 54 54 54 54 54 54 54 54 54 53 53 52 52 52 52 52 53 54 55 55 56 56 56 55 54 52 52 51 49 47 45 43 43 43 42 43 46 47 47 46 45 45 46 46
43 44 45 47 48 49 49 48 46 45 44 42 42 45 46 46 46 47 48 50 50 49 49 50 53 52 49 48 49 50 50 51 52 54 55 55 56 55 56 57 57 57 57 57 57 57 58 58 57 57 56 56 55 54 53 53 52 51 51 52 53 54 54 55 55 55 54 53 52 50 48 46 44 43 43 42 42 43 45 46 45 44 44 46 47 47
42 43 45 46 46 47 49 48 47 47 46 44 43 44 47 48 47 48 50 51 52 52 51 50 53 56 53 51 52 53 53 54 54 55 55 56 56 56 55 57 58 59 59 59 59 59 60 60 60 59 59 59 58 57 56 55 54 53 52 51 51 52 53 53 54 54 53 53 51 49 47 45 43 43 44 43 43 44 44 45 44 44 45 47 49 50
43 44 45 46 46 46 48 49 48 48 48 47 48 49 50 51 51 52 53 55 56 57 56 54 55 57 56 55 57 57 57 57 57 58 58 58 59 59 59 60 61 62 62 62 63 64 64 64 63 62 62 61 60 60 59 58 57 56 55 53 52 52 52 53 53 52 52 52 51 48 46 45 43 42 44 45 46 46 46 46 46 46 48 50 51 52
45 46 47 47 47 47 50 51 51 51 51 51 52 54 55 56 56 56 57 58 59 61 62 61 61 61 60 60 61 62 63 63 63 64 64 64 64 64 64 65 65 65 66 66 67 68 68 68 67 66 65 64 63 63 62 61 60 59 58 57 56 55 54 54 53 52 52 51 50 48 47 45 43 42 44 46 47 48 49 49 49 49 50 50 51 53
47 48 49 50 50 49 50 53 54 55 55 55 54 56 59 59 59 59 59 60 62 64 65 65 66 65 63 64 66 66 67 67 67 68 69 69 69 69 68 69 69 69 69 68 69 70 70 70 70 69 68 68 67 67 65 64 62 61 60 60 59 58 57 56 55 54 52 51 50 49 48 46 45 44 45 46 48 49 49 49 49 49 49 50 50 52
49 50 51 53 54 52 52 55 57 58 59 58 56 57 60 61 61 61 62 62 65 66 66 66 68 68 66 66 68 68 68 69 70 70 71 72 73 72 72 71 71 72 71 71 71 72 71 71 71 71 71 70 70 70 70 69 66 64 63 62 60 60 60 59 58 56 55 53 52 51 49 48 46 45 45 47 49 50 50 49 48 47 47 48 50 52
51 52 53 55 58 57 56 57 60 60 60 59 57 58 60 61 61 62 63 64 66 68 67 67 69 70 69 68 69 69 70 71 72 72 74 74 74 75 75 74 74 75 75 75 76 76 75 75 74 74 73 72 71 71 72 72 71 69 67 65 63 62 61 61 60 59 57 55 54 53 51 50 48 47 46 46 47 49 50 51 51 50 49 47 47 50
53 55 56 58 60 61 59 61 62 63 62 60 58 58 58 59 62 64 65 66 68 69 68 69 71 72 71 71 72 73 74 74 74 75 75 75 76 77 76 76 77 78 79 80 80 80 80 80 78 77 76 75 74 73 73 74 74 72 70 68 66 65 64 63 62 60 59 58 57 55 53 52 51 50 48 47 47 47 48 49 51 52 53 50 47 48
55 57 58 60 62 63 62 64 65 64 64 62 57 55 58 61 64 67 69 69 69 68 68 71 73 74 74 74 75 76 77 77 77 76 76 77 79 79 77 77 78 79 80 81 81 81 82 81 81 80 78 77 76 75 75 76 76 75 74 72 70 68 66 64 63 62 62 60 59 58 56 54 53 52 51 50 49 47 47 47 47 49 51 52 50 49
56 58 59 60 63 64 65 67 68 67 66 63 58 58 63 66 67 69 71 71 69 68 72 75 77 78 78 78 79 79 80 80 79 78 78 79 81 81 80 80 80 80 81 83 83 83 82 82 82 81 80 79 78 77 77 77 78 77 76 74 72 70 68 67 66 64 63 62 61 59 58 56 55 54 53 52 51 49 48 47 47 47 48 50 50 48
57 59 60 61 63 65 67 69 69 69 68 63 61 64 69 70 71 72 73 72 70 72 77 80 81 81 80 81 82 83 84 83 81 80 81 83 84 83 83 83 84 84 84 84 85 85 84 83 83 83 82 81 79 79 78 78 78 78 77 75 73 72 70 69 68 65 63 61 61 59 58 57 56 55 55 54 52 51 49 48 47 48 49 49 48 46
58 59 60 63 65 66 68 70 70 71 71 66 65 69 72 73 73 74 75 75 75 77 80 83 83 83 82 85 88 89 89 88 87 87 88 89 89 89 88 89 89 88 88 87 87 86 86 85 85 85 84 82 79 78 78 78 78 78 77 76 74 74 72 71 70 68 65 62 60 59 58 56 55 55 55 54 54 52 50 49 48 48 50 49 48 45
58 60 62 64 66 67 69 71 72 74 73 70 69 73 75 74 74 74 75 77 79 80 82 83 84 85 86 89 92 92 92 92 92 92 93 93 93 93 93 92 92 91 91 90 89 89 89 89 88 85 83 82 79 77 77 77 76 75 74 72 71 71 71 71 70 69 67 65 63 63 61 58 56 56 55 55 54 53 51 50 49 48 49 49 48 46
60 61 64 66 67 67 69 71 73 74 74 73 74 76 76 75 76 76 78 80 82 83 84 85 87 89 90 91 91 92 93 94 95 95 95 95 96 96 95 95 93 92 91 91 91 92 91 87 83 82 84 85 82 80 78 77 76 75 73 71 69 69 71 71 70 69 68 68 67 65 63 60 58 58 57 56 55 53 51 50 49 49 49 49 48 45
62 64 66 66 67 68 69 72 74 74 74 76 78 79 79 79 79 79 81 84 87 88 89 90 90 90 91 91 92 93 94 95 97 97 96 97 97 95 93 92 92 91 90 90 89 87 84 82 83 88 91 90 87 83 80 77 75 73 71 69 69 70 71 72 71 70 71 71 69 68 66 62 59 59 58 57 55 54 52 50 48 48 48 49 48 44
63 65 67 66 67 68 70 73 74 73 75 79 80 80 82 82 80 80 83 88 91 90 90 90 90 90 92 93 94 94 94 95 97 98 98 97 95 93 91 90 90 91 91 90 88 86 87 91 94 95 94 92 90 88 84 80 78 76 75 75 75 75 75 75 76 75 74 72 70 69 67 64 61 58 56 54 53 52 51 49 47 47 47 48 47 43
65 66 67 67 68 69 71 72 72 74 77 80 80 82 84 83 83 85 88 90 90 88 87 88 89 90 92 93 93 94 95 95 96 97 98 97 96 94 93 92 92 92 92 92 92 93 96 99 98 95 93 94 96 96 93 90 89 89 89 89 87 83 81 81 80 79 77 76 73 71 68 65 62 59 55 52 50 49 48 47 45 45 46 48 46 42
66 67 68 69 69 70 71 72 75 79 82 83 84 86 87 86 85 87 89 88 88 87 87 87 88 90 92 93 94 94 94 96 98 100 101 100 99 98 97 96 96 96 95 96 97 98 99 99 97 97 96 95 94 93 91 90 90 91 92 92 90 89 87 85 84 83 80 77 75 72 68 65 62 59 55 51 48 46 45 44 43 43 45 46 45 40
67 68 70 71 71 71 74 76 79 83 85 86 88 89 89 87 86 86 88 89 89 90 90 91 93 95 96 97 96 96 98 100 102 102 101 99 97 95 94 92 91 91 91 91 90 88 87 87 87 86 84 82 80 78 78 78 78 78 77 76 76 76 77 77 80 83 83 80 77 73 67 63 60 57 53 50 46 44 43 42 42 42 43 44 42 38
69 69 71 73 73 74 77 79 82 85 86 88 89 90 91 91 91 91 92 92 93 94 95 97 98 99 100 99 99 100 100 99 98 95 92 91 89 87 85 82 81 80 78 76 75 75 74 74 73 73 72 70 68 66 65 67 68 65 63 60 57 55 55 57 60 65 70 73 75 74 69 64 60 55 51 48 45 43 42 42 40 40 42 42 39 36
70 70 72 75 77 78 79 80 82 85 86 88 89 90 93 94 96 97 98 99 100 100 100 100 99 99 100 100 98 97 94 91 89 87 85 83 81 79 77 75 72 71 68 66 66 66 66 66 67 66 65 63 60 58 58 59 60 59 55 51 47 44 44 46 47 48 49 52 58 64 67 65 62 55 49 45 43 42 41 41 40 39 40 40 37 33
70 72 74 77 79 81 82 83 84 86 87 90 92 94 95 97 98 100 102 102 102 102 101 100 99 99 97 94 91 88 86 85 84 82 80 78 75 72 71 69 66 64 62 61 61 61 62 63 62 60 59 57 55 55 55 55 55 55 51 46 42 40 40 41 40 39 38 37 38 43 49 55 58 56 49 44 42 41 40 40 38 38 37 37 34 31
73 76 78 80 81 83 85 86 88 88 89 91 94 97 99 101 102 103 104 104 103 103 101 99 96 94 90 86 83 82 82 81 80 79 77 74 71 69 68 67 65 63 62 61 61 61 61 59 56 54 54 53 52 51 51 51 51 50 47 42 39 38 38 36 34 33 33 31 29 27 30 36 44 49 49 46 42 40 39 38 36 35 35 34 31 28
78 80 82 84 84 85 87 89 91 93 94 94 96 99 102 105 106 106 106 105 103 101 99 95 90 85 80 79 78 79 78 77 76 74 73 71 69 69 68 67 65 64 63 61 60 59 58 56 54 53 52 50 48 46 46 46 47 45 41 38 37 38 36 32 30 30 30 28 26 23 22 24 29 35 42 45 44 40 37 36 35 33 32 31 29 26
80 82 85 87 88 90 92 94 97 101 102 103 103 105 106 106 106 106 105 103 100 96 92 87 81 76 73 73 75 75 76 74 72 70 70 68 68 67 67 66 65 64 63 61 59 58 58 58 57 55 51 47 45 43 43 43 42 40 38 37 37 37 33 29 27 28 28 26 25 23 20 20 20 22 29 38 43 40 36 35 32 30 29 29 27 24
82 85 87 90 93 95 96 98 100 103 106 107 107 107 106 105 104 104 102 98 93 88 82 77 73 72 72 72 72 71 71 71 69 68 68 67 67 67 67 67 67 65 64 61 58 57 57 58 56 52 47 43 42 41 40 40 38 36 37 38 37 34 30 26 24 25 26 24 23 21 20 19 18 17 20 29 37 38 35 33 30 27 27 27 25 23
Wind_Direction
318 314 313 312 311 310 308 307 307 306 305 304 304 304 303 303 303 302 303 303 303 303 306 305 305 309 310 308 307 304 303 304 304 305 305 304 302 301 300 299 300 301 300 298 298 298 298 299 300 301 303 305 305 305 305 304 304 303 302 302 301 301 301 301 301 301 300 301 301 302 302 302 302 303 303 305 306 308 310 311 312 313 313 313 314 315
318 314 313 311 310 309 307 307 307 307 307 306 306 306 306 306 305 306 306 307 306 306 308 307 308 310 310 309 309 306 304 304 304 305 305 304 303 301 299 297 298 300 300 298 297 296 296 296 297 299 301 303 304 304 304 304 303 302 301 301 300 300 300 300 300 300 300 300 301 302 302 302 303 303 303 304 305 306 308 310 311 312 313 313 314 316
314 311 311 311 310 309 308 307 308 309 309 309 309 309 309 309 309 309 310 310 309 308 309 308 308 311 310 309 309 305 301 300 300 302 303 303 302 299 297 296 296 298 299 298 297 296 294 293 294 297 299 301 302 302 302 302 301 300 300 299 300 300 300 300 300 300 300 300 301 302 303 303 303 303 303 304 304 305 306 308 310 311 312 313 314 316
313 311 311 312 311 310 309 309 310 311 312 312 312 312 312 312 311 311 310 310 311 310 310 309 309 311 311 309 307 304 299 297 298 301 302 302 301 299 297 297 297 299 299 298 296 296 294 291 291 294 297 298 299 300 300 300 300 299 299 299 299 299 300 300 300 300 300 300 301 302 303 304 304 304 303 304 304 305 307 308 309 310 311 313 314 315
313 313 313 313 312 312 310 311 311 312 313 314 313 312 312 312 312 312 311 309 310 310 311 310 308 309 311 310 309 306 303 301 302 303 303 300 299 298 296 296 297 298 298 296 296 295 294 291 290 292 294 296 298 300 300 301 300 300 299 299 299 299 300 301 301 301 301 301 302 303 304 305 304 304 303 304 304 305 307 308 309 310 311 313 314 315
313 313 313 313 313 313 312 313 313 313 314 315 314 313 312 312 312 312 311 309 309 309 310 311 308 307 311 313 313 308 304 304 304 303 301 298 297 296 294 294 297 298 298 297 296 295 294 292 291 292 294 297 300 301 302 301 301 300 299 299 299 299 300 301 302 303 303 303 303 304 305 305 305 304 303 303 304 305 306 307 309 310 310 312 314 314
314 314 314 314 315 316 315 315 315 315 315 314 314 313 313 313 312 312 311 310 310 310 311 312 310 309 310 311 311 308 304 304 305 304 301 298 298 297 296 296 298 299 299 298 297 296 294 293 293 295 297 298 299 301 302 301 300 299 299 299 299 299 300 301 303 303 304 304 305 305 306 305 304 303 303 303 303 304 305 306 307 308 308 310 312 313
317 318 318 318 318 318 317 317 316 316 315 315 314 314 314 313 312 312 311 311 310 310 311 310 307 307 307 307 309 308 305 304 304 302 300 299 299 299 298 300 301 302 300 299 297 297 297 297 297 299 300 300 299 299 300 300 299 298 298 298 299 299 300 302 303 304 305 306 307 307 307 306 304 303 303 302 303 303 304 304 305 306 307 309 311 312
322 321 321 320 319 319 318 318 317 316 316 315 314 314 313 312 312 311 310 310 309 308 309 306 304 304 304 307 312 311 307 306 304 302 301 301 301 301 303 304 304 303 301 299 299 300 300 299 299 300 301 301 301 300 300 298 297 297 298 298 299 300 301 302 303 305 306 307 308 308 308 306 305 304 303 302 302 303 303 304 304 305 306 308 310 310
323 322 321 320 320 320 319 319 318 318 316 315 314 313 313 312 310 310 308 307 306 306 307 306 306 306 306 310 316 312 308 307 306 304 304 304 304 305 306 306 304 301 300 300 300 300 299 299 299 300 300 301 301 302 301 299 297 297 298 299 299 300 301 302 303 305 307 307 308 309 308 307 305 304 304 303 302 303 303 303 303 304 305 306 309 309
325 325 324 324 323 323 323 323 322 321 319 318 316 314 313 311 310 309 307 306 306 307 308 309 311 312 311 313 314 311 309 308 306 306 306 308 308 307 305 303 302 301 301 300 300 299 299 299 300 301 301 301 301 301 300 300 299 299 299 300 300 301 302 303 304 305 307 307 308 309 309 308 306 305 304 303 302 302 302 302 302 302 303 304 307 307
330 329 328 327 326 326 325 325 323 322 321 319 317 315 313 311 310 309 308 307 309 311 312 313 313 313 315 315 313 312 311 309 309 310 310 311 310 307 304 303 304 304 304 303 302 301 301 301 301 302 302 302 302 301 301 301 301 301 301 301 301 302 302 303 304 305 306 307 308 309 309 308 306 306 304 303 302 301 301 300 301 300 301 303 305 306
331 330 329 328 328 327 326 325 325 324 322 320 319 317 315 313 312 310 310 310 312 313 314 314 313 313 315 316 315 314 313 313 313 313 314 314 312 309 307 306 307 308 308 308 306 305 304 304 304 304 304 304 304 304 303 303 302 302 302 302 301 302 302 303 304 305 306 307 307 308 308 307 306 306 304 303 302 301 300 299 299 299 299 301 303 304
331 330 330 330 329 329 329 329 328 327 326 323 322 320 319 318 317 316 315 315 314 313 314 315 316 315 317 319 318 316 316 316 315 314 315 315 314 312 310 310 310 310 310 310 310 309 309 308 308 308 307 306 305 304 303 302 301 301 300 300 300 300 301 302 303 304 305 305 306 306 306 306 306 305 304 303 302 300 300 299 298 297 298 299 301 303
334 333 333 333 333 333 333 332 331 331 329 327 326 325 324 324 324 324 323 322 320 317 317 318 318 320 324 326 321 318 319 318 315 316 318 318 316 315 313 313 312 312 312 312 313 313 312 311 310 309 308 306 305 303 302 301 300 299 299 298 298 299 300 301 302 303 304 304 304 304 304 305 305 304 304 303 302 301 300 298 296 296 297 298 300 302
336 337 336 336 335 334 334 334 334 334 333 332 331 330 330 330 329 328 328 326 323 322 323 324 324 327 331 329 322 319 321 319 317 318 320 319 319 318 316 315 314 314 314 314 314 313 312 312 310 310 309 307 306 303 301 299 298 298 297 297 298 299 299 300 301 302 301 302 302 302 302 303 303 303 303 303 303 302 300 297 295 295 296 297 300 302
337 338 336 335 335 335 336 337 338 338 337 337 336 335 335 335 333 330 329 328 327 327 330 331 330 332 335 330 322 320 320 318 317 318 318 318 319 318 316 315 315 315 315 315 315 314 314 313 313 313 312 312 312 310 307 305 303 301 299 297 297 298 299 300 301 302 300 298 299 300 300 300 301 301 302 302 302 301 298 295 294 294 295 297 300 303
336 337 335 334 335 336 338 340 340 341 342 341 340 340 339 338 337 336 334 334 334 332 333 335 333 338 343 333 322 320 318 317 316 316 316 318 319 318 316 316 317 318 318 318 317 317 316 316 316 316 315 315 315 315 315 315 313 311 308 304 300 298 299 299 302 307 304 298 295 296 296 297 298 299 301 301 301 298 296 294 293 294 295 297 300 303
335 336 337 336 336 337 339 340 342 344 344 343 342 341 341 341 341 342 340 338 337 334 335 337 338 345 348 331 321 322 320 318 318 318 319 321 322 320 319 319 319 320 319 319 318 318 317 317 316 316 315 316 316 317 317 317 317 316 315 312 308 304 303 303 305 309 310 305 300 297 296 297 298 299 301 300 299 297 295 294 293 293 295 298 301 303
336 337 339 338 337 337 338 341 343 344 343 343 341 341 342 343 342 343 342 340 337 335 337 338 342 350 350 331 326 326 323 322 323 325 326 327 325 323 322 323 323 324 323 322 322 321 321 321 320 320 320 320 320 319 319 318 318 317 316 316 315 312 311 310 309 310 310 309 307 304 302 301 302 302 302 300 297 296 295 293 292 293 294 297 301 304
337 338 340 339 336 336 339 341 343 342 341 341 341 341 342 341 340 341 341 340 337 336 337 335 340 350 347 332 331 329 326 327 328 329 331 331 328 326 326 326 327 327 327 326 326 326 325 326 326 327 327 326 326 325 324 323 322 320 319 318 317 317 316 314 313 311 308 308 307 306 305 305 305 304 302 301 298 296 294 292 291 292 293 296 300 304
338 339 341 339 336 337 340 341 341 341 340 340 340 339 338 338 337 337 337 338 337 336 335 331 335 346 343 333 333 329 326 328 328 327 329 329 328 326 325 325 325 325 324 324 324 323 323 324 324 324 325 325 326 326 326 326 325 324 323 321 319 318 317 316 314 312 309 306 305 304 303 303 303 303 302 301 299 296 293 290 291 292 292 295 300 304
339 340 342 340 338 339 340 340 340 340 339 338 336 335 334 334 334 333 332 333 334 334 332 327 329 338 339 333 332 328 325 326 326 325 326 325 325 323 321 321 321 320 320 320 320 320 320 320 319 319 320 320 321 322 322 322 323 323 323 322 321 319 317 316 315 312 309 306 304 303 302 303 303 302 301 300 299 296 292 289 290 291 292 296 300 302
341 341 342 341 338 338 340 340 340 340 338 336 333 332 331 329 329 329 327 327 329 329 328 324 324 330 334 329 326 325 323 324 324 322 321 321 320 319 318 318 317 317 317 317 317 318 318 317 317 316 316 316 316 317 317 318 319 319 320 320 320 319 318 316 315 313 310 307 305 303 302 303 303 303 301 300 298 294 290 290 291 292 292 295 299 302
342 341 341 340 338 339 341 340 339 340 339 336 334 331 330 327 326 325 324 324 325 325 324 323 321 322 326 324 321 321 321 321 321 319 318 318 318 317 316 315 315 315 315 315 315 315 315 314 314 313 313 313 313 313 314 314 315 315 316 316 316 317 317 316 315 314 312 310 308 305 304 304 304 304 301 298 296 293 291 291 292 291 293 297 300 303
341 340 340 340 339 341 342 340 339 339 338 338 336 332 330 328 327 325 324 325 325 323 323 323 321 319 322 323 320 320 320 319 319 318 318 317 316 316 316 314 314 313 313 313 313 313 312 311 311 310 310 310 310 310 310 310 310 311 311 312 313 313 313 314 314 314 313 312 310 308 306 304 304 305 301 296 293 292 292 292 293 293 296 299 301 303
339 339 339 339 339 340 339 337 336 336 336 337 335 332 329 327 327 326 326 326 325 322 322 324 321 320 323 324 321 319 319 319 319 318 317 316 315 315 314 312 311 311 311 312 312 311 310 309 309 308 308 307 307 307 306 306 306 306 307 307 308 309 310 310 311 311 312 312 311 310 307 304 302 303 303 299 294 292 292 293 294 296 297 299 302 305
337 337 338 337 337 337 336 334 333 332 333 334 333 332 329 326 325 326 326 325 324 322 322 324 322 321 324 324 321 319 319 318 318 317 316 316 316 315 314 313 311 310 310 311 311 310 309 308 308 307 306 305 304 304 304 303 303 303 303 303 304 305 306 307 308 309 310 310 310 309 307 304 300 299 301 302 299 296 294 293 295 296 297 300 303 305
335 335 335 335 335 336 334 332 330 330 330 332 332 331 327 325 325 326 325 324 322 320 322 324 322 322 323 322 320 319 319 318 318 318 318 318 317 316 315 314 312 310 310 311 310 309 308 308 308 307 306 305 304 303 302 301 301 300 300 300 300 301 302 303 304 305 306 307 308 308 307 304 300 297 297 300 301 299 297 296 297 298 299 301 302 304
333 333 332 331 332 335 333 330 329 328 329 331 331 329 326 325 325 325 324 323 321 320 322 322 321 320 322 321 319 319 319 319 319 318 317 316 315 315 314 312 311 310 310 310 308 307 307 307 306 306 305 305 304 303 302 301 300 299 298 298 298 298 298 298 299 300 302 303 304 305 305 303 300 296 294 294 296 297 296 296 297 299 299 299 300 303
331 331 330 328 330 333 332 329 328 328 329 330 331 329 325 324 325 324 323 323 320 320 321 321 319 319 320 320 318 318 317 317 317 316 315 314 314 313 311 310 309 309 308 307 306 305 305 304 303 303 302 302 302 301 301 300 299 299 298 297 297 296 295 295 295 296 297 299 300 302 303 303 302 299 294 292 291 292 292 293 294 297 299 299 299 300
329 328 328 326 328 331 331 328 328 328 329 331 331 329 325 324 324 323 322 321 320 319 320 319 317 318 319 319 317 316 315 315 315 314 314 313 312 311 310 309 309 308 307 306 304 303 302 301 301 300 299 299 299 299 299 298 298 297 297 297 296 295 294 293 293 294 294 295 297 298 299 301 301 301 299 295 292 291 290 290 291 292 295 298 298 296
328 327 327 326 327 330 330 327 328 329 331 333 333 329 325 323 322 320 320 321 320 320 319 318 316 317 318 317 316 315 314 314 314 314 314 312 310 310 309 309 307 306 305 305 304 303 302 302 301 300 299 298 298 297 297 297 297 296 296 296 295 295 294 293 292 293 292 292 294 295 296 297 298 299 300 299 297 294 292 291 291 290 291 294 294 293
328 328 327 326 326 329 329 327 328 331 333 335 334 328 323 321 319 319 321 322 322 321 317 315 315 316 317 316 315 315 315 314 314 314 312 309 308 308 307 306 305 304 304 303 303 302 301 301 300 299 299 298 298 297 297 297 297 297 297 297 296 295 294 293 292 292 291 291 291 292 294 295 296 297 298 299 299 298 296 294 294 292 291 290 289 290
329 328 327 326 326 327 328 328 329 331 334 335 331 325 321 321 320 320 322 323 322 319 316 315 316 317 317 316 315 315 314 314 314 313 309 307 307 307 305 304 303 302 301 300 299 299 299 298 298 298 298 297 297 297 297 296 296 297 297 297 296 296 295 294 293 292 291 290 290 290 291 292 293 294 295 296 297 298 298 296 295 295 294 292 290 288
329 328 327 327 327 327 328 329 329 330 332 333 329 324 322 322 322 322 323 323 321 318 316 317 318 318 316 315 315 315 314 313 312 310 306 305 306 305 304 303 302 301 300 299 299 299 299 299 298 298 297 297 297 297 297 296 296 296 295 295 295 295 294 294 294 293 292 291 289 289 290 291 292 292 293 293 295 297 298 297 296 296 296 295 294 290
329 329 328 328 328 328 328 329 329 329 330 332 328 324 324 325 325 323 322 321 320 319 319 319 318 317 316 315 315 315 313 312 310 308 306 306 306 305 304 304 303 302 302 301 301 301 300 300 299 299 298 297 297 296 296 296 295 294 293 294 294 293 293 294 293 292 292 290 288 288 290 291 292 292 291 292 293 295 296 298 297 296 297 297 297 293
330 330 329 328 329 330 329 329 329 329 330 330 326 324 325 326 325 323 321 320 320 320 319 319 317 317 316 315 314 313 312 311 309 308 308 308 307 307 306 305 305 304 304 303 303 302 302 302 301 301 300 300 299 298 296 294 293 291 291 292 293 293 293 293 293 292 292 290 288 288 289 289 290 291 291 291 292 293 294 296 297 296 297 297 297 295
331 330 330 330 331 331 330 328 329 330 329 327 325 325 326 326 325 323 319 319 320 320 319 318 317 316 315 314 312 311 310 309 308 308 308 307 307 306 306 306 306 305 305 305 304 303 303 302 301 300 301 300 298 296 294 291 289 288 287 288 291 293 292 290 289 289 290 291 290 289 290 290 289 289 289 289 290 292 292 294 296 296 295 296 297 296
332 331 332 332 332 331 329 328 329 328 327 326 326 327 327 327 326 322 318 319 321 320 319 317 316 314 313 312 311 310 309 308 307 306 305 305 305 305 306 306 305 305 304 303 301 299 298 297 296 297 298 297 294 291 289 286 284 283 282 284 287 290 288 285 284 286 288 289 289 289 290 291 292 291 290 289 289 290 291 292 294 295 294 294 296 295
332 332 332 332 331 330 329 328 328 327 326 327 327 327 327 327 325 320 318 319 320 319 317 316 314 313 311 310 309 307 306 304 303 303 303 304 305 305 305 304 303 303 301 299 296 295 295 296 297 297 296 295 293 291 288 285 283 283 283 284 285 285 284 282 282 284 285 286 286 287 288 290 291 293 292 291 290 290 290 291 293 293 292 293 294 294
332 332 333 333 331 330 329 328 327 326 326 327 327 326 326 326 323 320 320 320 319 316 313 312 311 310 308 306 304 303 303 303 303 303 304 305 305 304 303 302 301 300 299 297 296 296 296 297 297 296 295 295 295 294 292 289 286 286 286 287 287 285 283 281 281 281 282 282 283 284 286 287 289 291 292 293 293 291 289 290 291 290 290 291 293 293
333 333 333 332 331 330 329 329 327 327 327 328 326 326 326 325 322 320 318 317 316 313 310 309 307 306 305 305 305 306 306 306 305 305 306 306 305 304 304 303 301 300 299 299 299 298 298 298 298 297 297 297 298 299 298 295 293 291 290 290 289 287 285 283 282 280 280 280 281 282 283 285 286 288 289 292 293 291 288 288 288 287 287 289 292 292
333 333 332 331 331 330 330 329 328 327 328 327 326 326 326 324 321 318 316 315 314 312 310 308 308 308 309 310 310 309 308 307 307 308 309 309 308 308 307 306 305 304 304 303 303 303 303 303 303 303 303 303 305 306 306 305 304 302 300 298 295 293 290 288 285 282 280 279 279 279 280 281 283 285 286 289 292 290 285 284 285 284 284 288 291 291
334 333 332 331 331 330 329 328 326 325 325 325 325 324 323 321 319 317 315 314 312 311 311 311 311 312 312 311 310 310 310 311 312 313 314 313 313 313 313 313 313 312 312 311 311 311 311 310 309 309 309 310 312 313 313 313 313 313 312 310 306 303 299 296 293 289 285 281 277 275 276 277 278 280 283 287 290 288 282 280 280 280 282 286 289 289
334 333 331 330 329 327 325 324 323 322 322 321 321 320 318 317 316 314 313 312 312 312 313 313 313 313 313 313 314 315 316 316 317 318 318 318 318 318 318 319 318 317 316 315 316 316 314 313 311 311 312 314 315 315 314 314 315 316 317 315 311 307 304 303 303 300 295 288 280 275 273 273 274 275 277 282 287 286 279 277 277 277 280 286 288 286
333 331 329 327 326 324 323 322 321 321 321 319 318 317 315 314 313 312 312 313 314 315 315 315 315 315 316 318 319 319 320 321 321 322 322 322 321 321 320 320 320 317 315 314 314 313 312 312 312 312 313 312 311 311 311 312 313 315 315 314 311 307 304 306 307 306 304 300 290 278 271 269 270 271 271 276 282 281 277 275 276 276 280 285 286 283
332 329 327 325 324 323 322 321 321 320 320 319 317 315 314 313 313 313 314 315 316 317 317 317 318 319 320 322 323 323 324 324 324 323 323 322 322 321 320 320 319 317 315 314 312 311 312 314 314 314 312 309 307 307 310 312 313 315 314 313 310 306 304 306 309 309 308 308 303 290 275 269 269 268 267 270 275 277 275 275 275 275 279 284 284 280
331 329 327 325 324 323 322 321 321 320 320 319 317 316 315 315 316 316 317 319 319 319 319 319 321 323 325 326 326 326 325 325 324 323 323 323 323 323 323 323 322 321 319 318 316 314 314 315 313 312 312 311 309 309 311 313 315 317 316 312 308 306 305 306 310 313 314 314 311 303 290 277 270 266 264 264 267 271 274 275 274 275 279 281 280 276
329 328 326 325 324 324 323 323 323 322 321 321 319 318 319 319 320 320 321 322 322 321 321 322 325 328 329 329 328 327 326 326 326 325 325 325 326 327 327 327 327 326 325 323 321 319 317 315 313 311 311 311 311 312 313 315 318 319 317 312 309 309 309 307 307 312 315 316 313 308 298 284 272 264 260 259 259 264 272 275 274 274 277 277 275 272
329 328 327 326 326 325 325 324 324 322 321 321 321 321 321 322 322 323 323 323 322 322 324 327 329 331 331 330 329 328 327 327 327 328 328 329 330 330 331 331 331 331 329 328 325 322 320 318 316 314 312 311 311 312 314 317 320 320 317 313 313 314 313 308 306 308 310 312 312 310 301 289 279 271 262 256 255 260 269 273 272 272 274 273 271 270
Height
5807 5806 5804 5802 5800 5798 5796 5794 5792 5789 5787 5785 5782 5780 5777 5775 5774 5771 5767 5766 5762 5760 5759 5756 5754 5754 5750 5746 5743 5739 5735 5732 5730 5728 5726 5723 5721 5717 5714 5710 5706 5703 5700 5697 5693 5691 5687 5684 5682 5679 5677 5674 5670 5666 5663 5660 5658 5655 5652 5650 5646 5642 5639 5636 5632 5629 5625 5622 5619 5616 5613 5610 5607 5604 5601 5598 5594 5590 5586 5582 5579 5575 5571 5568 5564 5561
5806 5804 5802 5801 5799 5796 5794 5792 5790 5787 5785 5782 5780 5777 5775 5772 5770 5768 5765 5762 5760 5757 5756 5753 5751 5751 5746 5741 5738 5735 5731 5728 5725 5724 5721 5719 5716 5713 5709 5706 5703 5699 5695 5692 5689 5687 5684 5680 5678 5675 5672 5668 5665 5662 5658 5655 5652 5649 5645 5643 5641 5637 5634 5630 5627 5623 5620 5617 5614 5611 5608 5604 5602 5599 5596 5593 5589 5586 5583 5578 5574 5570 5566 5563 5559 5556
5805 5803 5801 5799 5797 5794 5792 5790 5787 5785 5782 5779 5777 5774 5772 5769 5767 5765 5762 5759 5756 5754 5753 5750 5748 5748 5743 5738 5734 5730 5728 5724 5721 5720 5717 5715 5711 5708 5704 5701 5698 5695 5691 5687 5684 5682 5681 5678 5674 5671 5668 5664 5660 5657 5654 5650 5647 5643 5640 5637 5634 5632 5629 5626 5622 5618 5615 5611 5608 5605 5602 5599 5596 5593 5590 5587 5583 5581 5578 5574 5571 5566 5561 5558 5554 5551
5803 5801 5799 5797 5794 5792 5789 5787 5785 5782 5779 5776 5774 5771 5769 5766 5763 5761 5759 5756 5753 5749 5747 5746 5744 5744 5739 5734 5730 5726 5724 5721 5717 5715 5713 5709 5706 5702 5699 5695 5693 5690 5687 5683 5678 5675 5674 5674 5672 5668 5663 5659 5655 5652 5649 5645 5642 5638 5635 5631 5628 5626 5623 5620 5617 5613 5609 5606 5603 5600 5596 5593 5590 5587 5584 5581 5577 5574 5571 5568 5565 5562 5557 5553 5549 5546
5801 5799 5797 5794 5792 5789 5787 5784 5782 5779 5777 5773 5770 5767 5765 5763 5759 5756 5754 5752 5750 5745 5742 5739 5739 5741 5736 5730 5726 5721 5717 5716 5713 5710 5707 5704 5702 5698 5694 5691 5688 5686 5682 5678 5675 5670 5666 5665 5665 5664 5659 5654 5650 5647 5643 5640 5637 5633 5630 5626 5623 5620 5617 5615 5612 5608 5604 5600 5597 5594 5590 5587 5584 5581 5578 5575 5571 5568 5565 5562 5559 5556 5552 5547 5544 5540
5799 5797 5794 5791 5789 5786 5783 5781 5778 5776 5774 5770 5767 5764 5761 5759 5755 5752 5749 5746 5745 5742 5739 5733 5731 5736 5734 5726 5721 5715 5710 5709 5707 5704 5700 5697 5696 5695 5690 5687 5685 5681 5678 5674 5670 5667 5662 5658 5655 5656 5655 5651 5646 5642 5639 5635 5631 5628 5625 5621 5618 5614 5611 5609 5606 5603 5598 5595 5592 5589 5586 5582 5578 5575 5572 5569 5566 5562 5559 5556 5553 5550 5546 5542 5538 5534
5796 5794 5791 5789 5786 5783 5780 5778 5775 5772 5770 5767 5764 5761 5757 5754 5751 5748 5744 5741 5740 5738 5736 5730 5724 5727 5730 5725 5717 5710 5704 5703 5701 5697 5693 5690 5689 5689 5685 5682 5680 5676 5673 5670 5666 5662 5659 5655 5650 5648 5648 5647 5642 5638 5634 5630 5626 5622 5619 5616 5612 5609 5606 5603 5600 5597 5593 5589 5586 5583 5581 5577 5573 5569 5566 5563 5560 5557 5554 5551 5548 5545 5541 5538 5533 5529
5794 5791 5789 5786 5783 5781 5777 5774 5771 5769 5766 5763 5759 5757 5753 5750 5747 5744 5741 5737 5735 5733 5733 5728 5721 5719 5723 5721 5712 5705 5699 5697 5695 5691 5687 5685 5682 5681 5679 5677 5675 5672 5668 5665 5662 5658 5655 5651 5647 5643 5640 5638 5636 5633 5629 5625 5621 5617 5614 5610 5607 5604 5600 5598 5595 5592 5588 5584 5581 5578 5575 5571 5567 5564 5561 5558 5555 5552 5549 5545 5542 5539 5535 5532 5528 5523
5791 5789 5786 5783 5780 5777 5774 5770 5767 5764 5761 5758 5755 5753 5749 5746 5743 5740 5737 5733 5729 5728 5727 5723 5717 5714 5715 5714 5706 5699 5694 5691 5689 5685 5681 5679 5677 5675 5674 5673 5671 5667 5664 5660 5657 5654 5651 5647 5643 5639 5635 5632 5628 5626 5624 5620 5616 5612 5608 5604 5601 5598 5595 5592 5589 5586 5583 5579 5575 5572 5569 5566 5562 5558 5555 5552 5549 5546 5543 5539 5536 5532 5529 5526 5522 5518
5788 5786 5783 5780 5777 5774 5771 5766 5763 5760 5757 5754 5750 5748 5745 5741 5739 5736 5732 5729 5725 5723 5720 5716 5710 5706 5707 5707 5700 5693 5689 5685 5684 5681 5677 5675 5671 5669 5669 5668 5666 5662 5658 5655 5651 5648 5645 5641 5637 5634 5631 5627 5623 5619 5616 5614 5610 5607 5603 5599 5596 5592 5589 5587 5584 5581 5577 5573 5570 5566 5563 5560 5556 5553 5550 5546 5543 5539 5536 5533 5530 5526 5522 5519 5516 5512
5786 5782 5779 5776 5773 5770 5767 5763 5759 5755 5752 5749 5745 5743 5742 5738 5735 5732 5727 5723 5720 5717 5713 5710 5706 5700 5699 5700 5695 5688 5684 5680 5678 5676 5674 5671 5667 5665 5664 5663 5660 5656 5652 5649 5646 5643 5639 5635 5632 5628 5625 5622 5618 5614 5610 5607 5604 5601 5597 5593 5590 5587 5584 5581 5578 5575 5571 5568 5564 5560 5557 5554 5551 5548 5544 5541 5537 5534 5530 5527 5523 5520 5516 5513 5510 5506
5783 5780 5776 5773 5770 5767 5764 5761 5756 5752 5748 5744 5740 5736 5735 5733 5730 5728 5722 5717 5714 5711 5708 5706 5703 5699 5695 5693 5689 5684 5678 5674 5672 5670 5669 5667 5665 5662 5659 5657 5654 5650 5647 5644 5641 5638 5634 5630 5627 5623 5620 5616 5613 5609 5605 5602 5598 5595 5591 5587 5584 5581 5577 5575 5572 5569 5566 5562 5558 5554 5551 5548 5545 5542 5539 5535 5531 5528 5525 5521 5517 5514 5510 5507 5504 5500
5781 5777 5774 5770 5767 5763 5760 5758 5754 5750 5744 5739 5735 5730 5726 5723 5722 5720 5716 5711 5709 5707 5705 5702 5699 5696 5693 5688 5683 5679 5674 5669 5666 5665 5664 5663 5662 5659 5655 5652 5648 5644 5641 5638 5635 5632 5628 5625 5621 5618 5614 5611 5607 5603 5599 5596 5593 5589 5585 5581 5578 5575 5571 5568 5566 5563 5560 5556 5552 5548 5545 5542 5539 5536 5532 5529 5525 5522 5519 5515 5512 5508 5504 5501 5498 5495
5778 5773 5770 5767 5764 5759 5755 5752 5748 5745 5740 5734 5730 5725 5720 5714 5712 5711 5709 5706 5704 5703 5702 5699 5695 5692 5691 5687 5680 5674 5670 5665 5662 5661 5661 5660 5657 5654 5650 5646 5643 5639 5635 5632 5629 5626 5622 5619 5615 5612 5609 5605 5601 5598 5593 5590 5587 5583 5580 5576 5572 5569 5565 5562 5560 5557 5553 5550 5546 5542 5539 5535 5533 5530 5526 5523 5519 5515 5512 5509 5506 5502 5499 5495 5492 5489
5775 5769 5765 5762 5758 5754 5750 5746 5742 5739 5735 5730 5725 5721 5716 5711 5707 5705 5703 5699 5697 5696 5697 5695 5692 5689 5686 5683 5676 5670 5667 5662 5657 5656 5656 5655 5652 5648 5644 5640 5636 5633 5630 5626 5623 5620 5617 5613 5610 5606 5603 5600 5596 5592 5588 5584 5581 5578 5574 5570 5567 5563 5559 5556 5553 5550 5547 5543 5540 5536 5533 5529 5526 5523 5520 5517 5513 5509 5506 5503 5499 5496 5493 5489 5486 5483
5772 5766 5761 5758 5754 5751 5747 5743 5739 5735 5731 5727 5723 5718 5715 5710 5706 5703 5702 5698 5693 5691 5692 5691 5689 5687 5684 5680 5673 5667 5665 5660 5654 5652 5650 5649 5646 5642 5638 5634 5631 5628 5624 5621 5618 5614 5611 5608 5604 5601 5597 5594 5590 5586 5582 5578 5575 5571 5568 5564 5560 5557 5553 5549 5546 5544 5540 5537 5533 5530 5526 5523 5520 5517 5514 5510 5507 5503 5499 5496 5493 5490 5487 5484 5480 5477
5772 5766 5759 5756 5752 5748 5744 5740 5736 5732 5728 5724 5720 5717 5713 5710 5706 5702 5700 5698 5692 5688 5687 5685 5683 5683 5681 5676 5670 5666 5663 5659 5653 5649 5646 5643 5641 5637 5632 5628 5625 5622 5619 5616 5612 5608 5605 5601 5598 5595 5591 5587 5583 5579 5575 5571 5567 5564 5560 5556 5553 5550 5546 5543 5540 5537 5533 5529 5526 5523 5520 5516 5513 5510 5506 5503 5500 5496 5493 5490 5487 5484 5481 5478 5474 5471
5769 5765 5758 5753 5749 5745 5741 5738 5734 5729 5725 5721 5718 5714 5711 5709 5706 5700 5694 5692 5689 5685 5684 5683 5679 5677 5674 5669 5665 5662 5659 5655 5651 5646 5642 5639 5636 5632 5628 5624 5621 5617 5613 5610 5606 5602 5598 5594 5591 5588 5584 5580 5576 5572 5568 5564 5560 5556 5552 5548 5545 5542 5540 5536 5533 5530 5525 5522 5519 5515 5512 5509 5506 5503 5499 5497 5493 5490 5487 5484 5481 5478 5475 5472 5469 5465
5764 5763 5757 5750 5746 5742 5739 5736 5733 5728 5723 5719 5715 5711 5708 5704 5702 5698 5691 5686 5683 5679 5678 5678 5676 5674 5670 5664 5659 5657 5653 5649 5646 5643 5638 5635 5631 5627 5623 5619 5616 5612 5608 5604 5600 5597 5593 5589 5585 5581 5578 5574 5569 5565 5561 5558 5554 5550 5546 5542 5539 5536 5533 5530 5527 5523 5519 5515 5512 5508 5505 5502 5499 5496 5493 5490 5486 5483 5481 5479 5476 5473 5469 5466 5463 5459
5760 5758 5755 5749 5743 5740 5738 5734 5731 5727 5723 5719 5714 5709 5705 5701 5698 5696 5692 5686 5681 5676 5672 5671 5672 5671 5667 5661 5655 5653 5649 5645 5641 5638 5634 5631 5627 5622 5618 5614 5610 5607 5603 5599 5595 5591 5587 5583 5579 5575 5571 5568 5563 5559 5555 5551 5548 5544 5540 5537 5533 5530 5526 5523 5520 5516 5513 5510 5506 5502 5498 5495 5493 5490 5486 5483 5480 5477 5475 5473 5470 5467 5464 5460 5457 5454
5758 5755 5753 5748 5743 5739 5736 5732 5729 5725 5721 5717 5712 5707 5703 5700 5696 5694 5692 5688 5681 5675 5670 5667 5667 5667 5664 5658 5653 5649 5646 5642 5637 5634 5631 5627 5623 5619 5614 5610 5606 5602 5599 5595 5591 5587 5583 5579 5575 5570 5566 5562 5558 5553 5549 5545 5541 5538 5534 5530 5527 5523 5520 5517 5514 5510 5507 5504 5500 5497 5493 5490 5487 5484 5481 5477 5474 5471 5469 5467 5464 5461 5458 5455 5452 5449
5756 5752 5749 5745 5741 5739 5735 5731 5727 5724 5719 5715 5710 5706 5702 5698 5694 5691 5689 5687 5683 5676 5670 5665 5663 5663 5661 5655 5651 5646 5641 5638 5634 5630 5627 5624 5620 5616 5611 5606 5602 5597 5594 5590 5586 5582 5578 5574 5570 5566 5562 5557 5553 5548 5544 5539 5535 5532 5528 5524 5520 5517 5513 5510 5507 5504 5501 5498 5495 5491 5488 5484 5482 5478 5475 5471 5468 5466 5463 5461 5458 5455 5452 5449 5446 5443
5753 5751 5748 5743 5738 5735 5733 5729 5726 5722 5718 5713 5709 5705 5701 5696 5691 5686 5683 5682 5680 5676 5670 5664 5660 5660 5658 5651 5647 5642 5637 5634 5630 5625 5622 5619 5615 5611 5606 5602 5598 5594 5589 5585 5581 5577 5573 5569 5565 5561 5557 5552 5548 5543 5539 5534 5530 5526 5522 5519 5515 5511 5508 5504 5501 5498 5495 5492 5489 5485 5482 5479 5475 5472 5469 5465 5462 5460 5457 5454 5452 5449 5446 5444 5441 5438
5749 5746 5744 5741 5737 5734 5731 5727 5724 5721 5716 5712 5708 5703 5699 5694 5690 5685 5680 5676 5675 5672 5667 5661 5657 5656 5655 5649 5644 5639 5635 5631 5626 5620 5616 5613 5609 5605 5601 5597 5593 5589 5584 5580 5575 5571 5567 5563 5559 5555 5551 5547 5543 5538 5534 5529 5525 5520 5516 5513 5510 5506 5502 5498 5495 5492 5489 5486 5483 5480 5476 5473 5469 5466 5463 5459 5457 5454 5451 5449 5446 5444 5441 5438 5435 5432
5747 5743 5739 5735 5732 5730 5728 5725 5722 5719 5716 5711 5706 5700 5696 5692 5687 5683 5679 5673 5671 5668 5663 5657 5652 5651 5651 5646 5640 5636 5631 5627 5623 5617 5612 5608 5603 5599 5595 5591 5587 5583 5579 5574 5570 5566 5561 5557 5554 5549 5545 5541 5537 5533 5528 5524 5519 5515 5511 5507 5504 5500 5496 5492 5489 5485 5482 5479 5476 5473 5470 5467 5463 5461 5458 5454 5451 5449 5446 5443 5441 5438 5435 5432 5429 5426
5746 5741 5737 5732 5726 5722 5720 5716 5713 5712 5711 5709 5704 5698 5692 5689 5684 5680 5675 5669 5665 5663 5661 5654 5646 5644 5645 5641 5635 5631 5627 5623 5619 5614 5609 5605 5600 5595 5590 5585 5581 5577 5573 5568 5564 5560 5556 5552 5548 5543 5539 5535 5531 5526 5522 5518 5514 5510 5506 5501 5497 5494 5490 5486 5483 5479 5476 5473 5469 5466 5463 5460 5457 5455 5453 5449 5446 5444 5441 5438 5435 5433 5430 5427 5423 5420
5745 5741 5737 5732 5727 5722 5718 5715 5710 5707 5704 5703 5701 5697 5690 5685 5681 5677 5672 5666 5660 5656 5656 5653 5643 5637 5637 5634 5629 5625 5622 5618 5614 5609 5605 5601 5596 5591 5586 5581 5576 5571 5566 5562 5558 5554 5550 5546 5542 5537 5533 5528 5524 5520 5515 5511 5508 5504 5500 5496 5492 5487 5484 5480 5476 5473 5469 5466 5463 5459 5457 5454 5451 5449 5447 5444 5441 5438 5436 5433 5430 5428 5424 5421 5418 5414
5743 5740 5737 5733 5728 5723 5718 5714 5710 5706 5702 5699 5696 5693 5688 5682 5678 5674 5669 5662 5655 5649 5647 5648 5642 5634 5631 5628 5623 5618 5615 5611 5607 5602 5597 5593 5588 5584 5579 5574 5569 5564 5559 5555 5550 5546 5542 5538 5534 5530 5526 5521 5517 5513 5508 5504 5500 5496 5493 5489 5486 5481 5477 5474 5470 5467 5463 5459 5456 5453 5450 5447 5445 5443 5441 5438 5435 5433 5430 5427 5425 5422 5419 5416 5412 5409
5740 5737 5734 5731 5727 5722 5717 5712 5708 5704 5700 5696 5692 5688 5683 5678 5673 5669 5665 5659 5652 5644 5640 5638 5635 5631 5627 5622 5616 5612 5608 5603 5598 5593 5587 5582 5578 5574 5570 5565 5560 5556 5551 5547 5542 5537 5532 5529 5525 5521 5517 5513 5508 5504 5500 5497 5493 5489 5485 5482 5478 5475 5471 5467 5464 5460 5456 5453 5449 5446 5443 5440 5438 5436 5434 5431 5429 5427 5424 5422 5419 5416 5414 5411 5407 5404
5737 5734 5730 5727 5725 5721 5715 5709 5705 5700 5696 5693 5689 5684 5678 5673 5669 5664 5659 5654 5647 5640 5635 5631 5626 5624 5622 5616 5609 5605 5600 5595 5590 5585 5579 5574 5569 5565 5561 5556 5551 5547 5543 5539 5533 5528 5523 5519 5515 5511 5507 5503 5498 5494 5491 5487 5484 5481 5477 5474 5471 5467 5463 5459 5456 5453 5450 5446 5443 5439 5436 5433 5430 5428 5426 5424 5422 5420 5418 5415 5413 5411 5409 5406 5402 5399
5734 5730 5726 5721 5720 5719 5713 5706 5700 5695 5690 5687 5684 5680 5673 5667 5664 5659 5653 5647 5640 5633 5631 5625 5618 5615 5615 5609 5603 5599 5594 5589 5584 5579 5572 5566 5561 5555 5551 5547 5542 5537 5533 5529 5524 5519 5514 5510 5505 5501 5498 5494 5489 5484 5480 5476 5474 5471 5468 5465 5462 5458 5454 5451 5448 5445 5442 5439 5436 5432 5429 5426 5423 5421 5419 5416 5414 5412 5410 5408 5406 5404 5402 5399 5396 5393
5729 5726 5722 5716 5714 5713 5709 5703 5697 5693 5689 5684 5679 5674 5667 5661 5657 5653 5648 5642 5634 5626 5623 5618 5611 5607 5605 5601 5595 5591 5587 5582 5577 5571 5563 5557 5551 5545 5541 5536 5532 5526 5521 5516 5512 5507 5503 5498 5494 5490 5487 5483 5480 5475 5470 5465 5462 5460 5458 5455 5452 5449 5445 5442 5439 5436 5434 5431 5428 5425 5422 5419 5416 5414 5411 5409 5406 5404 5402 5400 5398 5397 5394 5392 5390 5387
5725 5721 5716 5711 5707 5706 5703 5697 5693 5689 5685 5681 5676 5667 5660 5655 5651 5646 5643 5639 5632 5623 5615 5609 5603 5599 5596 5592 5586 5581 5577 5572 5568 5562 5554 5545 5539 5535 5531 5525 5520 5514 5509 5503 5499 5494 5489 5485 5481 5478 5474 5471 5468 5465 5460 5454 5450 5448 5446 5444 5441 5438 5435 5432 5429 5427 5425 5422 5419 5416 5414 5411 5409 5406 5403 5401 5399 5397 5395 5392 5390 5388 5387 5385 5383 5381
5721 5715 5711 5705 5700 5698 5696 5691 5688 5685 5680 5676 5671 5663 5655 5650 5645 5640 5637 5633 5628 5620 5611 5602 5597 5593 5589 5583 5576 5570 5566 5561 5557 5552 5543 5533 5527 5524 5520 5515 5509 5503 5497 5492 5487 5482 5477 5472 5468 5465 5462 5459 5456 5453 5449 5444 5439 5435 5434 5432 5429 5427 5424 5421 5419 5417 5415 5413 5410 5407 5405 5402 5400 5398 5396 5394 5391 5389 5387 5385 5383 5381 5378 5376 5375 5374
5717 5711 5706 5701 5695 5691 5688 5683 5678 5677 5675 5670 5664 5658 5651 5645 5638 5633 5630 5627 5622 5613 5604 5595 5590 5585 5579 5573 5567 5561 5555 5550 5546 5540 5531 5523 5518 5513 5507 5503 5498 5493 5486 5480 5475 5470 5466 5461 5455 5451 5448 5446 5443 5440 5437 5433 5428 5424 5422 5420 5417 5415 5412 5410 5408 5407 5405 5403 5401 5398 5396 5394 5392 5389 5387 5386 5384 5382 5380 5378 5376 5373 5371 5368 5367 5367
5712 5707 5702 5697 5691 5685 5682 5678 5671 5668 5669 5666 5657 5650 5644 5638 5631 5624 5620 5619 5614 5604 5594 5587 5581 5575 5568 5561 5555 5550 5544 5538 5536 5530 5520 5513 5509 5504 5497 5491 5485 5479 5474 5468 5462 5456 5452 5448 5443 5438 5435 5433 5431 5428 5424 5420 5416 5412 5410 5409 5407 5404 5401 5398 5396 5396 5394 5393 5391 5388 5386 5385 5383 5381 5379 5377 5376 5374 5372 5371 5369 5366 5363 5361 5360 5359
5709 5703 5697 5692 5687 5680 5674 5671 5667 5661 5660 5657 5648 5640 5635 5630 5623 5614 5608 5607 5602 5594 5585 5578 5570 5564 5557 5549 5542 5537 5531 5526 5522 5516 5508 5502 5497 5491 5485 5479 5471 5465 5459 5454 5449 5444 5439 5434 5429 5425 5421 5419 5418 5416 5411 5407 5404 5400 5397 5397 5396 5393 5390 5388 5385 5384 5383 5382 5381 5379 5377 5376 5374 5371 5369 5368 5367 5366 5365 5363 5362 5359 5356 5354 5353 5351
5705 5700 5693 5687 5683 5677 5669 5662 5657 5652 5649 5646 5639 5632 5627 5623 5617 5608 5600 5596 5591 5584 5577 5569 5560 5554 5548 5540 5532 5525 5518 5511 5506 5500 5493 5487 5482 5475 5469 5464 5458 5452 5446 5440 5435 5430 5425 5421 5415 5411 5407 5405 5404 5403 5399 5394 5390 5387 5385 5385 5383 5381 5378 5376 5374 5372 5371 5371 5370 5368 5367 5367 5365 5362 5360 5359 5358 5358 5357 5356 5354 5352 5350 5348 5346 5344
5701 5696 5690 5683 5678 5673 5665 5657 5650 5644 5639 5635 5630 5624 5620 5615 5608 5599 5591 5585 5582 5576 5569 5561 5553 5544 5537 5530 5521 5513 5505 5496 5489 5485 5480 5473 5467 5461 5454 5448 5444 5439 5434 5429 5423 5417 5411 5406 5401 5397 5393 5391 5389 5388 5386 5382 5377 5373 5372 5372 5371 5369 5367 5364 5361 5360 5359 5359 5359 5358 5357 5357 5356 5353 5351 5350 5350 5349 5349 5348 5347 5346 5344 5341 5339 5338
5696 5690 5685 5680 5673 5668 5661 5653 5647 5640 5632 5626 5620 5614 5610 5606 5599 5589 5578 5572 5568 5564 5557 5549 5541 5533 5525 5518 5511 5504 5497 5487 5476 5470 5466 5460 5454 5449 5443 5436 5431 5426 5421 5417 5411 5405 5400 5395 5390 5385 5381 5378 5375 5374 5372 5369 5364 5360 5359 5359 5359 5358 5355 5351 5350 5349 5349 5348 5348 5348 5347 5347 5346 5343 5341 5341 5341 5340 5340 5340 5339 5338 5337 5335 5333 5331
5691 5685 5680 5675 5669 5663 5655 5647 5641 5635 5626 5619 5612 5605 5600 5596 5590 5581 5572 5562 5555 5549 5542 5535 5529 5523 5516 5509 5502 5495 5489 5481 5469 5460 5454 5449 5442 5437 5432 5426 5421 5415 5410 5404 5398 5392 5387 5382 5378 5372 5368 5364 5361 5359 5358 5355 5350 5346 5344 5344 5346 5346 5343 5339 5337 5337 5337 5337 5337 5337 5337 5337 5336 5334 5332 5332 5331 5331 5332 5332 5332 5331 5330 5328 5326 5325
5685 5679 5674 5668 5662 5656 5650 5641 5634 5628 5623 5616 5608 5600 5594 5589 5580 5571 5564 5556 5548 5540 5532 5527 5522 5515 5507 5500 5493 5484 5476 5469 5460 5451 5443 5437 5430 5423 5418 5414 5408 5403 5398 5391 5385 5380 5373 5368 5363 5359 5355 5351 5347 5344 5342 5339 5336 5332 5329 5328 5329 5331 5329 5326 5324 5323 5323 5324 5325 5326 5327 5327 5326 5324 5323 5323 5323 5323 5323 5324 5324 5324 5323 5321 5320 5318
5679 5673 5669 5664 5656 5649 5643 5636 5626 5617 5612 5606 5599 5591 5585 5579 5569 5558 5551 5546 5540 5533 5525 5519 5513 5505 5495 5486 5478 5470 5461 5453 5445 5437 5429 5423 5416 5409 5403 5398 5392 5387 5382 5376 5371 5366 5359 5352 5347 5343 5340 5337 5333 5329 5325 5322 5320 5318 5315 5313 5312 5311 5310 5309 5308 5307 5309 5310 5312 5314 5316 5317 5315 5314 5315 5315 5315 5315 5315 5316 5316 5316 5316 5314 5313 5312
5677 5670 5664 5660 5654 5645 5637 5631 5622 5613 5605 5598 5590 5582 5575 5569 5562 5552 5542 5535 5529 5523 5514 5506 5498 5491 5481 5470 5461 5453 5446 5437 5430 5423 5415 5407 5401 5394 5388 5383 5377 5372 5367 5361 5355 5350 5344 5338 5333 5329 5326 5323 5320 5317 5312 5307 5304 5302 5300 5298 5296 5293 5292 5292 5290 5290 5293 5296 5298 5301 5304 5305 5305 5305 5305 5307 5307 5307 5308 5308 5309 5309 5308 5308 5307 5305
5674 5667 5659 5654 5650 5644 5635 5628 5620 5613 5605 5597 5588 5579 5570 5563 5557 5549 5539 5529 5520 5512 5503 5492 5483 5475 5468 5459 5449 5440 5432 5424 5416 5409 5401 5394 5387 5381 5374 5369 5363 5358 5353 5347 5342 5338 5333 5327 5322 5318 5315 5312 5310 5307 5303 5298 5293 5289 5287 5285 5282 5280 5278 5277 5276 5276 5278 5280 5283 5287 5291 5293 5294 5295 5296 5298 5299 5300 5300 5301 5301 5301 5301 5301 5300 5299
5669 5663 5656 5649 5644 5640 5635 5628 5620 5613 5605 5597 5590 5581 5570 5560 5552 5542 5531 5521 5510 5501 5492 5482 5472 5463 5456 5447 5437 5428 5420 5412 5404 5398 5391 5383 5375 5369 5363 5358 5353 5348 5343 5338 5334 5330 5325 5320 5315 5310 5307 5304 5302 5299 5295 5291 5287 5282 5278 5275 5273 5270 5268 5267 5266 5266 5266 5266 5268 5272 5277 5280 5282 5285 5288 5289 5291 5293 5293 5293 5294 5294 5295 5295 5295 5294
5666 5660 5654 5647 5640 5632 5626 5621 5614 5607 5599 5588 5578 5571 5562 5552 5544 5534 5522 5510 5499 5489 5480 5471 5462 5453 5445 5437 5427 5418 5410 5403 5395 5387 5380 5374 5367 5361 5355 5350 5346 5341 5337 5332 5328 5323 5318 5313 5307 5303 5300 5297 5294 5291 5287 5284 5281 5277 5272 5269 5266 5264 5262 5261 5260 5258 5257 5256 5257 5259 5262 5266 5270 5274 5278 5281 5283 5285 5286 5286 5287 5288 5288 5289 5289 5288
5658 5652 5646 5640 5634 5625 5617 5610 5603 5599 5594 5584 5571 5559 5548 5537 5529 5521 5511 5500 5489 5479 5470 5461 5452 5443 5435 5427 5418 5409 5401 5394 5387 5379 5372 5366 5360 5354 5349 5344 5339 5334 5329 5325 5320 5314 5309 5305 5300 5296 5293 5289 5286 5283 5280 5278 5275 5271 5267 5264 5261 5259 5257 5256 5255 5254 5252 5251 5250 5250 5252 5255 5259 5264 5268 5273 5276 5278 5279 5280 5281 5281 5283 5283 5283 5283
5647 5642 5634 5627 5623 5617 5610 5602 5592 5584 5580 5575 5563 5549 5536 5523 5511 5503 5494 5485 5475 5465 5456 5448 5442 5435 5426 5418 5410 5402 5394 5388 5381 5373 5366 5360 5354 5348 5342 5337 5332 5327 5322 5317 5312 5306 5302 5297 5293 5289 5286 5282 5278 5276 5274 5272 5269 5265 5262 5259 5256 5254 5253 5252 5252 5251 5249 5247 5246 5246 5247 5248 5251 5254 5259 5264 5268 5271 5272 5273 5274 5276 5277 5278 5278 5278
5642 5634 5626 5617 5610 5603 5595 5587 5575 5560 5550 5545 5537 5527 5517 5506 5494 5485 5477 5469 5460 5451 5443 5436 5431 5427 5421 5414 5406 5396 5387 5381 5375 5368 5361 5356 5350 5343 5337 5331 5326 5321 5315 5310 5305 5300 5295 5291 5286 5282 5278 5275 5272 5270 5268 5266 5263 5261 5258 5255 5252 5250 5249 5248 5248 5248 5247 5245 5244 5244 5244 5244 5246 5248 5251 5256 5261 5264 5266 5267 5269 5270 5271 5272 5272 5272
5636 5626 5616 5605 5596 5588 5580 5573 5563 5549 5535 5526 5518 5509 5500 5492 5482 5474 5466 5458 5449 5442 5435 5429 5422 5417 5413 5408 5401 5393 5383 5375 5369 5363 5356 5351 5345 5339 5333 5326 5320 5314 5308 5303 5298 5293 5289 5284 5280 5276 5272 5269 5267 5264 5262 5261 5259 5256 5254 5251 5249 5247 5245 5244 5244 5244 5244 5242 5242 5242 5241 5241 5242 5244 5246 5250 5255 5258 5260 5261 5263 5264 5266 5266 5267 5267